sat.trackr.live / text

‹ back to catalog

STARLINK-6267

NORAD 56400 · 2023-061AC

PAYLOAD ACTIVE UNKNOWN

§ Identity

Operator
Country
US
Launch date
2023-05-04
Launch site
AFETR
Launch vehicle
Mass (kg)
RCS (m²)

Purposes: comms

External: N2YO · Heavens-Above · Gunter

§ Orbital elements

Epoch: 2026-05-25T04:18:21.581280Z

Period
94.27 min
Inclination
43.0046°
Eccentricity
0.0001879
Mean motion
15.27575778 rev/d
Perigee alt
481.8 km
Apogee alt
484.4 km
Semi-major
6,861.2 km
B*
3.3051e-5
RAAN
114.9890°
Arg perigee
279.9733°
Mean anomaly
80.0906°
Rev number
16,857

§ Raw data

STARLINK-62671 56400U 23061AC  26145.17941645  .00000647  00000+0  33051-4 0  99942 56400  43.0046 114.9890 0001879 279.9733  80.0906 15.27575778168575

JSON: /api/v1/satellites/56400 · /tle

For live sub-satellite position, see the globe view (requires WebGL).

§ Visibility from observer

Set your observer location to see the next 7 days of passes ≥ 10°. The values pass through the URL so the page stays shareable.

No JS? Fill the form by hand. The geolocation button needs JavaScript.